Home > Weather > Laredo > Past weeks

Flag for U.S.A. Weather for the Past 2 Weeks in Laredo, Texas, U.S.A.

Now
81 °F

Sunny.


Feels Like: 80 °F
Forecast: 56 / 80 °F
Wind: 14 mph from Southeast

Location: Laredo International Airport

Current Time: Feb 13, 2016 at 3:45:42 PM

Latest Report: Feb 13, 2016 at 2:56 PM


Visibility: 10 mi

Pressure: 30.18 "Hg

Humidity: 32%

Dew point: 48 °F

Location of LaredoLocation

Historic Weather in Laredo — Graph

°F

Laredo Temperature Yesterday

Maximum temperature yesterday: 87 °F (at 3:56 PM)
Minimum temperature yesterday: 50 °F (at 7:58 AM)
Average temperature yesterday: 67 °F

High & Low Weather Summary for the Past Weeks

 TemperatureHumidityPressure
High92 °F (Feb 1, 3:56 PM)100% (Feb 12, 7:58 AM)30.56 "Hg (Feb 12, 7:58 AM)
Low36 °F (Feb 4, 6:56 AM)13% (Jan 31, 4:56 PM)29.49 "Hg (Feb 1, 5:56 PM)
Average61 °F44%30.16 "Hg
* Reported Jan 29 1:56 PM — Feb 13 1:56 PM, Laredo, Weather by CustomWeather, © 2016

Note: Actual official high and low records may vary slightly from our data, if they occured in-between our weather recording intervals... More about our weather records

Advertising

Laredo Weather History for the Previous 24 Hours

 ConditionsComfort  
Time TempWeatherWind HumidityBarometerVisibility
1:56 PM
Sat, Feb 13
80 °FSunny.10 mph32%30.21 "Hg10 mi
12:56 PM79 °FSunny.9 mph41%30.27 "Hg10 mi
11:56 AM74 °FSunny.13 mph56%30.30 "Hg10 mi
10:56 AM71 °FSunny.13 mph63%30.32 "Hg10 mi
9:56 AM62 °FLow clouds.7 mph86%30.34 "Hg10 mi
8:56 AM59 °FLow clouds.7 mph90%30.33 "Hg10 mi
7:56 AM57 °FLow clouds.6 mph96%30.32 "Hg8 mi
6:56 AM56 °FPassing clouds.5 mph97%30.29 "Hg7 mi
5:56 AM57 °FClear.7 mph96%30.27 "Hg7 mi
4:56 AM58 °FFog.9 mph97%30.25 "Hg4 mi
3:56 AM57 °FClear.8 mph90%30.25 "Hg10 mi
2:56 AM56 °FClear.7 mph84%30.25 "Hg10 mi
1:56 AM59 °FClear.7 mph78%30.24 "Hg10 mi
12:56 AM62 °FClear.8 mph70%30.24 "Hg10 mi
11:56 PM
Fri, Feb 12
64 °FClear.8 mph65%30.24 "Hg10 mi
10:56 PM65 °FClear.9 mph63%30.24 "Hg10 mi
9:56 PM67 °FClear.10 mph55%30.23 "Hg10 mi
8:56 PM69 °FClear.7 mph36%30.21 "Hg10 mi
7:56 PM73 °FClear.9 mph29%30.19 "Hg10 mi
6:56 PM77 °FClear.6 mph26%30.16 "Hg10 mi
5:56 PM82 °FSunny.6 mph19%30.14 "Hg10 mi
4:56 PM87 °FSunny.8 mph14%30.13 "Hg10 mi
3:56 PM87 °FSunny.6 mph17%30.13 "Hg10 mi
Weather by CustomWeather, © 2016

See weather overviewHow to use our weather pages